Location: Maddington
(51.2000°N, 1.9167°W)
Time: 11:17:01
(UTC+00:00)

NOSS 2-2 (E) - Pass Details

Date: 26 January 2021
Orbit: 465 x 1741 km, 63.3° (Epoch: 16 January)

Event Time Altitude Azimuth Distance (km) Brightness Sun altitude
Rises 19:14:36 0° 315° (NW) 3,016 7.7 -22.8°
Reaches altitude 10° 19:16:39 10° 319° (NW) 2,234 6.9 -23.1°
Maximum altitude 19:21:45 65° 42° (NE) 993 4.3 -23.9°
Enters shadow 19:22:58 54° 92° (E) 1,149 4.4 -24.1°
